Flag for USA

Past Weather in 36°09'28"N, 86°44'42"W, USA — Yesterday and Last 2 Weeks

Currently: 47 °F. Overcast. (Weather station: Nashville International Airport, USA). See more current weather

Past Weather in 36°09'28"N, 86°44'42"W — Graph

°F

36°09'28"N, 86°44'42"W Temperature Yesterday

Maximum temperature yesterday: 73 °F (at 9:53 am)
Minimum temperature yesterday: 49 °F (at 9:53 pm)
Average temperature yesterday: 62 °F

High & Low Weather Summary for the Past Weeks

 TemperatureHumidityPressure
High85 °F (Oct 22, 1:53 pm)94% (Oct 23, 9:21 pm)30.37 "Hg (Oct 23, 9:21 pm)
Low39 °F (Oct 17, 6:53 am)22% (Oct 16, 2:53 pm)29.50 "Hg (Oct 29, 4:53 am)
Average62 °F74%30.09 "Hg
* Reported Oct 15 4:53 am — Oct 30 4:53 am, 36°09'28"N, 86°44'42"W. Weather by CustomWeather, © 2020

Note: Actual official high and low records may vary slightly from our data, if they occured in-between our weather recording intervals... More about our weather records

36°09'28"N, 86°44'42"W Weather History for the Previous 24 Hours

Scroll right to see more
 ConditionsComfort  
Time TempWeatherWind HumidityBarometerVisibility
4:53 am
Fri, Oct 30
48 °FOvercast.8 mph74%30.11 "Hg9 mi
3:53 am49 °FOvercast.12 mph74%30.10 "Hg9 mi
2:53 am50 °FOvercast.12 mph74%30.06 "Hg9 mi
1:53 am50 °FOvercast.7 mph77%30.03 "Hg9 mi
11:53 pm
Thu, Oct 29
50 °FOvercast.10 mph77%29.99 "Hg10 mi
11:39 pm50 °FOvercast.10 mph77%29.99 "Hg10 mi
10:53 pm49 °FOvercast.14 mph84%29.96 "Hg10 mi
9:53 pm49 °FOvercast.10 mph84%29.91 "Hg10 mi
8:53 pm50 °FLight rain. Mostly cloudy.15 mph86%29.89 "Hg10 mi
8:02 pm53 °FLight rain. Fog.10 mph86%29.87 "Hg3 mi
7:55 pm53 °FFog.13 mph86%29.86 "HgN/A
6:53 pm55 °FLight rain. Fog.10 mph87%29.79 "Hg6 mi
6:37 pm55 °FLight rain. Fog.12 mph90%29.78 "Hg3 mi
6:22 pm56 °FLight rain. Fog.9 mph87%29.77 "Hg4 mi
5:53 pm57 °FLight rain. Fog.10 mph83%29.74 "Hg4 mi
5:01 pm61 °FMostly cloudy.9 mph72%29.71 "Hg10 mi
3:53 pm64 °FOvercast.9 mph58%29.65 "Hg10 mi
12:21 pm69 °FBroken clouds.15 mph66%29.64 "Hg10 mi
11:53 am67 °FLight rain. Mostly cloudy.15 mph76%29.62 "Hg10 mi
11:35 am69 °FCloudy.10 mph76%29.63 "Hg10 mi
10:53 am70 °FPartly sunny.16 mph76%29.61 "Hg10 mi
9:53 am73 °FPartly sunny.9 mph81%29.59 "Hg10 mi
8:53 am70 °FFog.8 mph90%29.58 "Hg6 mi
8:37 am70 °FFog.7 mph90%29.59 "Hg6 mi
8:19 am70 °FLight rain. Fog.7 mph90%29.57 "Hg2 mi
7:53 am70 °FLight rain. Fog.6 mph87%29.55 "Hg3 mi
6:53 am67 °FOvercast.5 mph90%29.53 "Hg7 mi
6:21 am66 °FFog.3 mph93%29.54 "Hg5 mi
Weather by CustomWeather, © 2020

See weather overview